カタログに戻る

ONEWEB-0690

運用中通信PO
NORAD 61598·PAYLOAD·🇬🇧 United Kingdom

打ち上げ Oct 20, 2024 から Vandenberg Space Force Base

Loading…

次のパス (今後24時間)

TLE

最新Source: CelesTrak SupGP

元期: Sep 14, 2026, 22:25 UTC

1 61598C 24188E   26257.93452963 -.00002307  00000+0 -65191-2 0  2579
2 61598  87.8965   3.2252 0002204  89.9509 310.6268 13.11413891    15

AllMySatでONEWEB-0690をリアルタイム追跡

Download on the App Store